Location: Newark
(30.0333°N, 31.2167°E)
Time: 09:27:35
(UTC+00:00)

Altair - Visible Passes

Search period start: 18 January 2020 00:00
Search period end: 28 January 2020 00:00
Orbit: 1502 x 1682 km, 47.2° (Epoch: 17 January)

Date Brightness Start Highest point End Pass type
(mag) Time Alt. Az. Time Alt. Az. Time Alt. Az.
18 Jan 9.5 17:10:33 10° WNW 17:17:39 23° SW 17:24:36 10° S visible
19 Jan 9.5 16:44:58 10° WNW 16:52:35 26° SW 17:00:00 10° S visible
20 Jan 9.4 16:19:28 10° WNW 16:27:30 30° SW 16:35:19 10° S visible
21 Jan 9.4 15:54:00 10° WNW 16:02:25 33° SW 16:10:35 10° S visible
24 Jan 9.5 04:08:58 10° S 04:17:19 32° SE 04:25:51 10° ENE visible
25 Jan 9.6 03:44:14 10° S 03:52:14 29° SE 04:00:22 10° ENE visible
26 Jan 9.6 03:19:34 10° S 03:27:08 26° SE 03:34:49 10° ENE visible
27 Jan 9.7 02:55:00 10° S 03:02:02 23° SE 03:09:14 10° ENE visible
